Flag for U.S.A. Weather past 2 weeks in Madison, Wisconsin, U.S.A.

Now
64 °F

Passing clouds.


Feels Like: 64 °F
Forecast: 61 / 74 °F
Wind: No wind

Location: Dane County Regional-Truax Field

Current Time: Jun 29, 2015 at 11:05:01 PM

Latest Report: Jun 29, 2015 at 9:53 PM


Visibility: 10 mi

Pressure: 29.78 "Hg

Humidity: 84%

Dew point: 59 °F

Location of MadisonLocation

Historic Weather in Madison — Graph

°F

Madison temperature yesterday

Maximum temperature yesterday: 73 °F (at 1:53 PM)
Minimum temperature yesterday: 53 °F (at 3:53 AM)
Average temperature yesterday: 64 °F

Past Weeks' High & Low Weather Summary

 TemperatureHumidityPressure
High85 °F (Jun 21, 2:53 PM)97% (Jun 21, 5:53 AM)30.17 "Hg (Jun 21, 5:53 AM)
Low53 °F (Jun 17, 5:53 AM)33% (Jun 27, 4:53 PM)29.64 "Hg (Jun 22, 1:53 PM)
Average69 °F70%29.95 "Hg
* Reported Jun 14 9:53 PM — Jun 29 9:00 PM, Madison, Weather by CustomWeather, © 2015

Note: Actual official high and low records may vary slightly from our data, if they occured in-between our weather recording intervals... More about our weather records

Advertising

Madison weather history for previous 24 hours

 ConditionsComfort  
Time TempWeatherWind HumidityBarometerVisibility
9:00 PM
Mon, Jun 29
65 °FPartly sunny.5 mph78%29.79 "Hg10 mi
7:53 PM71 °FBroken clouds.9 mph81%29.77 "Hg10 mi
6:53 PM75 °FPartly sunny.No wind64%29.77 "Hg10 mi
5:53 PM75 °FPartly sunny.3 mph64%29.76 "Hg10 mi
4:53 PM73 °FBroken clouds.7 mph71%29.77 "Hg10 mi
3:53 PM74 °FBroken clouds.12 mph69%29.77 "Hg10 mi
3:00 PM75 °FPartly sunny.7 mph69%29.79 "Hg10 mi
1:53 PM74 °FBroken clouds.No wind64%29.79 "Hg10 mi
12:53 PM75 °FPartly sunny.No wind62%29.79 "Hg10 mi
11:53 AM74 °FPartly sunny.3 mph67%29.80 "Hg10 mi
11:00 AM71 °FCloudy.3 mph78%29.82 "Hg10 mi
9:53 AM68 °FMostly cloudy.No wind82%29.81 "Hg10 mi
8:53 AM66 °FMostly cloudy.No wind87%29.81 "Hg10 mi
7:53 AM66 °FPartly sunny.No wind84%29.81 "Hg8 mi
6:53 AM63 °FFog.No wind90%29.80 "Hg6 mi
5:53 AM60 °FFog.No wind93%29.79 "Hg4 mi
4:53 AM60 °FFog.No wind93%29.78 "Hg3 mi
3:53 AM61 °FOvercast.No wind93%29.79 "Hg7 mi
2:53 AM61 °FMostly cloudy.No wind90%29.79 "Hg7 mi
1:53 AM62 °FMostly cloudy.No wind86%29.80 "Hg10 mi
12:53 AM64 °FMostly cloudy.3 mph81%29.80 "Hg10 mi
11:53 PM
Sun, Jun 28
64 °FOvercast.5 mph84%29.81 "Hg10 mi
Weather by CustomWeather, © 2015

See weather overviewHow to use our weather pages